Location: Unspecified
(43.4680°N, 87.1740°E)
Time: 05:03:46
(UTC+00:00)

ARIANE 5 R/B - Pass Details

Date: 17 April 2021
Orbit: 620 x 656 km, 98.1° (Epoch: 11 May)

Event Time Altitude Azimuth Distance (km) Brightness Sun altitude
Exits shadow 14:53:39 35° 81° (E) 1,040 3.3 -19.7°
Maximum altitude 14:54:02 35° 70° (ENE) 1,026 3.4 -19.8°
Drops below altitude 10° 14:58:03 10° 4° (N) 2,027 5.6 -20.3°
Sets 15:00:23 0° 356° (N) 2,933 6.7 -20.7°
